Temp
25 24 24 24 25 26 26 27 27 27 28 28 28 27 26 25 25 29 31 30 30 29 28 29 29 30 30 31 31 30 30 30 30 30 30 29 29 28 28 26 24 23 22 22 22 22 22 22 23 22 22 21 17 16 19 19 18 18 17 17 18 17 17 17 17 18 18 19 20 20 20 21 21 21 20 20 20 20 19 19 19 19 19 18 18 18
25 23 24 25 26 27 27 27 27 26 27 27 27 26 26 26 26 30 31 29 30 28 27 30 29 29 30 30 31 31 29 29 29 30 29 29 29 28 28 26 24 24 23 22 22 22 22 22 23 22 22 21 17 16 19 18 17 18 18 18 17 16 17 18 18 18 19 20 20 20 21 21 21 21 21 21 20 19 19 19 19 19 18 18 18 18
23 23 25 27 27 27 27 27 26 26 26 26 26 25 24 26 27 29 30 29 29 27 27 29 28 29 30 30 31 31 29 29 30 30 29 29 29 29 28 25 23 23 22 22 22 22 22 22 22 22 22 21 17 17 19 18 17 18 18 18 17 16 18 19 19 19 19 20 20 20 21 21 22 21 21 21 20 19 19 19 19 18 18 18 18 18
22 24 26 27 27 26 25 25 25 25 25 25 26 24 23 26 26 25 27 28 29 28 28 29 28 28 30 30 31 30 29 29 29 30 29 29 29 29 28 25 23 23 22 22 22 21 20 20 22 21 22 21 18 17 19 17 17 18 17 17 17 18 19 19 19 19 18 19 20 20 21 21 21 21 20 20 20 20 19 19 19 18 18 18 19 19
24 26 28 27 26 25 24 25 25 24 24 25 26 25 25 27 27 26 27 28 28 27 28 28 25 26 28 29 29 29 29 29 29 29 29 29 29 29 28 26 24 23 23 23 22 19 18 19 21 21 22 21 18 18 19 17 17 18 17 18 19 19 19 19 20 19 18 19 20 20 20 20 20 20 20 20 20 20 20 19 19 18 18 18 18 19
26 27 27 26 25 25 25 25 25 24 23 24 25 26 27 28 28 28 27 26 24 24 27 27 22 22 27 28 28 29 28 28 28 28 28 28 29 28 27 25 24 23 23 22 20 18 18 21 22 21 21 21 19 18 18 18 18 18 17 18 19 18 18 19 19 18 18 19 20 20 20 20 20 20 20 20 20 20 20 20 19 19 19 18 18 19
26 27 26 26 25 25 25 25 25 25 23 23 25 27 28 28 28 28 27 25 22 22 26 27 23 21 25 26 28 29 27 27 27 27 28 28 28 28 26 25 24 24 23 20 19 19 20 21 22 22 21 21 20 18 18 18 17 17 17 18 18 17 16 17 17 17 19 20 19 20 20 20 21 21 20 20 20 20 20 19 19 19 19 18 18 18
26 26 25 25 25 25 25 24 26 26 23 23 27 28 27 27 27 27 26 24 24 24 26 27 25 22 22 25 29 29 27 27 27 27 28 28 28 28 26 25 24 24 23 19 18 20 21 21 22 22 21 20 20 18 17 18 17 16 16 16 16 16 16 17 16 16 18 20 20 20 21 21 21 21 20 20 20 20 19 19 19 19 19 19 18 18
26 25 25 25 25 24 25 26 27 27 25 25 29 29 28 28 27 27 26 24 25 24 22 24 26 22 21 24 29 29 27 27 27 27 28 28 28 28 25 24 24 24 23 19 19 21 21 21 21 21 21 20 19 17 16 17 18 17 16 16 17 17 17 18 17 17 18 19 20 20 21 21 21 20 20 20 19 19 19 19 19 19 19 18 18 18
27 26 26 25 25 25 26 27 28 27 26 27 28 28 28 28 28 28 27 25 24 23 21 23 24 22 21 23 26 27 26 26 28 28 28 27 27 27 25 24 23 23 22 20 19 21 22 22 21 21 22 20 18 17 16 16 17 18 17 16 17 16 16 17 18 18 18 19 20 20 20 20 20 20 20 20 19 19 19 19 19 19 19 18 18 18
27 27 27 26 26 27 27 28 28 27 27 28 27 27 27 27 28 27 26 25 22 21 21 23 24 23 21 22 25 25 26 28 28 27 28 27 26 26 25 24 23 22 22 22 21 21 22 22 20 19 19 18 17 16 17 16 16 17 16 16 16 16 16 17 17 18 19 19 19 20 20 20 20 20 19 19 19 19 19 19 19 19 19 18 18 18
26 25 26 26 27 27 27 27 27 27 28 27 27 26 25 24 25 24 23 23 21 21 22 24 25 23 21 22 25 27 28 29 28 26 27 26 25 25 24 23 23 23 24 25 23 22 22 19 17 15 15 16 16 16 17 16 15 16 15 16 17 17 17 18 18 18 19 19 19 19 19 19 19 19 19 19 19 19 19 19 19 19 18 18 18 18
25 25 26 26 27 27 26 26 26 26 27 27 26 24 22 21 22 21 21 21 21 21 23 24 25 23 22 23 26 27 28 28 27 27 27 26 25 25 23 23 24 24 24 24 24 24 21 16 15 15 15 15 16 16 16 16 16 16 16 17 17 17 18 19 19 19 19 19 19 19 19 19 19 19 19 19 19 19 19 19 19 19 19 18 18 18
23 25 26 26 26 27 26 25 24 24 25 26 24 23 21 21 21 21 21 21 21 21 23 25 24 22 22 24 25 25 26 26 26 26 26 26 26 26 24 24 24 24 25 24 24 25 21 16 15 15 14 15 16 16 16 16 16 16 17 17 17 17 17 18 18 19 19 18 19 19 19 19 19 19 19 19 19 19 19 19 19 19 19 19 18 18
21 22 25 25 26 26 26 26 26 26 26 26 27 26 23 21 21 21 21 21 21 21 22 24 23 21 22 24 25 25 25 25 25 25 25 25 26 26 26 25 24 24 24 24 24 23 19 16 16 15 15 16 16 16 16 16 16 16 17 17 16 16 16 17 18 18 18 18 19 19 19 19 19 19 19 19 19 19 19 19 19 19 19 18 18 18
21 22 25 27 27 27 26 27 28 27 25 26 28 26 23 23 23 21 21 21 21 21 22 22 22 23 23 24 26 26 25 25 24 25 25 25 26 26 25 25 24 23 22 23 23 20 18 17 17 16 16 16 16 16 17 17 17 17 17 16 16 17 17 18 18 18 18 17 18 19 18 19 19 19 19 19 19 19 19 19 19 19 19 18 18 17
21 22 27 27 27 28 27 27 28 27 25 26 26 24 25 28 26 22 21 22 21 21 21 22 22 23 23 23 25 25 25 26 25 25 25 26 26 25 23 23 23 22 22 22 20 18 17 17 17 17 17 16 16 16 17 17 17 17 17 17 17 17 17 18 18 18 18 17 18 18 18 19 19 19 19 19 19 19 19 19 19 19 18 18 18 17
22 22 26 27 26 27 28 28 28 28 27 25 23 25 27 28 26 23 21 21 21 20 21 22 21 22 22 22 24 25 25 26 26 25 25 25 25 24 23 22 22 22 21 21 20 18 17 17 17 18 17 17 16 17 17 17 17 17 17 17 17 17 17 18 17 17 17 18 18 18 18 19 19 19 19 19 19 18 18 19 18 18 18 18 17 17
24 22 24 27 26 27 28 27 26 27 28 27 26 27 27 23 22 23 21 21 21 21 21 21 21 22 21 22 24 24 25 25 25 24 23 23 24 24 23 22 21 21 21 21 20 19 19 18 18 19 19 18 17 17 18 17 17 17 17 17 17 17 18 17 17 18 18 18 18 18 18 18 18 19 19 19 18 18 18 18 18 18 18 18 17 17
25 21 22 26 27 27 27 25 23 24 27 27 27 27 27 24 23 22 22 22 21 21 21 21 21 21 22 23 24 24 24 24 23 23 22 23 23 23 23 23 22 22 22 21 20 19 20 20 20 20 19 18 18 18 17 17 17 17 17 17 17 17 17 17 17 17 18 18 18 18 18 18 18 19 19 19 18 18 18 18 18 18 17 17 17 17
24 22 21 23 26 25 24 24 24 24 25 25 24 24 24 25 24 23 22 22 22 21 21 21 21 21 21 24 24 23 23 23 22 22 22 22 23 23 23 23 23 23 22 21 21 20 20 20 19 19 18 18 18 17 16 16 17 17 17 18 17 17 17 17 17 17 17 18 18 18 18 18 18 18 18 18 18 18 18 18 18 17 17 17 18 18
24 23 21 21 23 23 23 26 27 27 27 26 24 24 24 24 23 22 21 22 22 21 21 21 21 20 21 23 23 23 23 22 22 22 22 22 22 22 22 23 23 23 22 22 21 20 20 20 20 19 19 19 18 17 16 16 16 17 18 18 17 17 17 17 17 17 17 17 17 18 18 18 18 18 18 18 18 18 18 17 17 17 17 18 18 18
23 23 22 21 22 23 25 26 27 27 27 27 26 26 26 25 23 21 20 21 22 22 22 22 21 20 20 22 23 23 23 22 22 22 21 21 22 22 22 22 22 22 22 21 21 20 20 21 20 20 19 19 19 18 17 17 16 17 17 17 18 18 17 17 17 17 17 17 18 18 18 18 18 18 18 18 18 18 18 18 18 17 17 18 18 18
22 22 21 21 22 24 25 26 26 27 26 25 26 26 26 25 24 23 23 22 21 21 22 21 21 21 20 21 23 23 22 22 22 22 22 21 22 22 22 21 21 21 21 21 20 20 20 20 20 19 18 18 18 18 17 17 17 17 18 18 18 18 18 17 17 17 17 17 18 18 17 17 17 18 18 18 18 18 18 18 18 17 17 18 18 18
21 21 21 20 21 21 22 23 24 24 25 24 25 26 26 26 26 25 24 23 22 21 21 21 20 20 20 21 23 23 21 21 22 23 22 22 22 21 21 21 21 20 20 20 19 19 20 19 19 19 18 18 18 18 18 18 18 18 18 18 18 18 18 18 18 18 18 18 18 18 17 17 17 17 17 17 18 18 18 18 18 18 18 18 18 18
21 20 20 20 19 18 19 20 21 22 23 24 24 25 25 25 25 24 22 21 21 21 21 21 20 19 20 21 22 22 22 22 22 22 22 22 21 21 20 20 20 20 20 19 19 19 19 19 19 19 18 18 18 18 18 19 19 18 18 18 18 18 18 18 18 18 18 18 18 17 17 17 17 17 17 17 17 18 18 18 18 18 18 18 18 18
20 19 19 19 19 18 18 19 21 22 22 22 23 24 24 25 25 23 22 21 21 21 21 21 20 19 20 21 21 22 21 21 20 21 21 21 21 20 20 20 20 20 19 19 19 19 19 19 20 20 19 19 19 18 18 18 18 18 18 18 18 18 18 18 18 18 18 18 18 17 17 17 17 17 17 17 17 17 17 18 18 18 18 18 18 18
20 19 19 18 19 19 19 19 20 21 22 22 23 23 23 24 23 22 21 21 22 21 20 21 21 20 20 20 20 21 21 19 19 20 20 20 20 19 19 19 19 19 19 19 19 19 19 19 19 20 20 19 19 19 18 18 18 18 18 18 18 17 17 18 18 18 18 17 17 17 18 17 17 17 17 17 17 17 17 17 17 18 18 18 18 18
21 20 19 19 18 19 19 19 19 20 21 22 22 22 22 22 22 21 21 21 22 21 20 20 20 19 20 20 19 19 19 18 18 19 19 19 19 19 19 19 19 19 19 18 19 19 19 19 19 19 19 19 19 18 18 18 18 18 18 17 17 17 17 17 18 18 18 18 17 17 17 17 17 17 17 17 16 16 17 17 17 17 17 17 17 17
21 20 19 19 19 19 18 18 18 19 20 21 21 21 21 21 21 21 21 21 21 20 19 20 19 18 18 18 17 16 17 17 17 18 18 19 19 19 19 18 18 18 18 18 18 18 18 18 19 19 19 19 19 19 18 18 18 18 17 17 17 17 17 17 18 18 18 18 17 17 17 17 17 17 17 16 16 16 16 16 16 16 16 16 16 16
20 19 19 19 19 19 19 18 18 18 18 19 20 20 20 20 20 20 19 20 20 19 18 18 17 16 16 16 16 16 16 17 17 17 18 18 18 18 18 17 17 17 17 17 17 18 17 18 18 18 19 19 19 19 19 18 18 18 18 18 18 18 17 17 18 18 18 18 18 17 17 17 17 17 17 16 16 16 16 15 15 15 15 15 15 16
20 19 19 19 18 18 18 18 18 18 17 17 17 18 19 19 18 18 18 18 18 18 18 17 16 15 15 15 15 15 15 15 15 16 16 16 17 18 17 17 17 17 17 17 17 17 17 17 17 18 18 18 18 18 19 19 19 19 19 18 18 18 18 17 18 18 18 18 18 17 17 17 17 17 17 16 17 16 16 16 16 15 15 15 15 14
20 19 18 18 18 18 18 18 18 18 17 16 17 17 18 17 17 17 17 16 17 18 18 18 17 16 15 15 14 14 13 13 13 13 13 13 13 14 15 15 15 15 16 16 15 15 16 16 17 17 17 17 17 18 18 18 18 18 18 18 18 18 18 18 18 18 18 18 18 17 17 17 17 17 17 16 17 17 16 16 16 16 15 14 14 13
19 19 19 18 17 17 18 19 18 17 16 16 16 17 18 17 16 16 15 15 16 17 18 18 17 16 15 15 13 12 11 11 10 11 11 12 11 10 10 11 11 12 13 13 12 13 13 14 15 15 16 16 16 16 17 17 17 17 18 18 18 18 18 18 18 18 18 18 18 18 18 18 18 17 17 17 17 16 16 16 16 16 15 14 14 14
16 16 17 17 16 16 17 17 16 15 15 15 15 16 17 17 16 15 14 15 15 16 17 17 17 16 15 14 12 11 9 9 8 8 8 9 9 8 8 8 9 9 9 9 9 10 10 10 11 12 13 14 15 15 15 16 16 17 17 17 17 18 18 18 18 18 18 18 18 18 18 18 18 18 17 17 17 17 17 16 16 16 15 15 15 14
16 16 17 17 16 15 15 15 15 14 14 14 14 16 17 17 16 16 15 15 16 16 16 15 15 14 14 12 11 10 9 8 7 7 6 6 6 7 7 8 8 8 8 8 7 8 8 8 8 8 9 10 12 13 14 14 15 16 17 17 17 17 17 18 18 17 17 17 18 18 18 18 18 17 17 17 17 17 17 17 16 16 15 15 15 15
19 18 17 17 17 16 16 16 15 13 14 14 14 15 15 15 16 16 15 14 15 17 16 14 13 13 12 12 11 11 11 10 9 9 8 8 7 7 7 7 7 8 8 8 7 7 7 7 7 7 8 8 9 9 10 12 13 15 16 16 17 17 17 17 17 17 17 17 17 17 17 17 17 17 17 17 17 17 17 17 17 16 16 16 16 16
20 18 16 16 17 18 17 17 15 14 14 14 14 14 14 14 14 16 15 14 15 17 16 14 13 13 12 12 12 12 13 12 10 11 12 11 11 10 9 9 9 9 9 9 9 9 9 8 8 8 8 8 9 9 9 10 11 13 14 15 15 16 16 16 16 16 16 16 16 16 16 16 16 17 17 17 17 17 17 17 17 17 17 16 16 16
19 18 18 17 17 17 17 17 16 15 13 13 14 14 14 15 14 15 15 14 15 17 17 15 14 14 14 13 13 14 14 13 11 12 13 13 13 13 12 12 12 11 11 10 10 11 11 11 10 10 10 10 9 10 10 10 11 12 12 13 14 15 15 15 15 15 15 15 15 15 15 15 16 16 16 16 16 16 16 16 17 17 17 16 16 16
17 18 18 17 17 17 17 16 16 13 12 12 14 14 14 14 14 14 14 14 14 16 17 16 16 15 15 15 15 14 14 13 12 12 13 13 13 13 13 13 13 12 12 11 10 10 11 11 11 11 11 11 10 10 11 11 11 12 12 13 13 14 14 14 14 14 14 14 14 14 15 15 15 15 15 15 15 16 16 16 16 16 16 16 17 17
16 17 17 17 17 17 16 16 14 12 11 12 13 13 13 14 14 14 14 13 13 15 16 16 15 15 16 15 15 13 12 13 13 12 13 13 12 12 12 12 12 12 12 11 10 10 11 11 11 11 11 10 10 10 10 11 11 11 12 12 13 13 13 13 13 13 13 13 14 14 14 14 14 14 14 14 14 15 15 15 16 16 16 16 16 17
15 15 16 16 16 16 16 15 14 11 11 12 12 12 12 13 13 13 13 14 14 15 15 15 14 14 14 14 13 12 12 12 12 12 12 12 11 12 12 11 11 11 11 10 10 9 10 10 11 10 10 10 10 10 10 10 10 10 11 11 12 12 12 12 12 12 12 13 13 13 13 13 13 13 13 13 14 14 14 15 15 16 16 16 16 16
15 14 15 16 15 15 15 15 13 11 10 12 13 12 12 12 11 12 13 14 14 14 14 14 14 14 13 12 12 12 11 11 11 11 11 11 11 11 11 10 10 10 10 10 10 9 9 10 10 10 9 9 9 9 9 9 9 10 10 10 10 10 10 11 11 11 11 12 12 12 12 12 13 13 13 13 13 14 14 14 15 15 15 15 16 16
14 14 15 14 13 14 14 12 11 11 11 13 13 12 12 12 12 13 13 14 14 14 13 13 13 13 13 12 12 12 11 11 11 11 10 10 10 10 10 9 9 9 9 9 9 8 8 9 9 9 9 9 8 8 8 8 9 9 9 9 9 9 9 9 10 10 10 10 11 11 11 12 12 13 13 13 13 13 14 14 14 14 15 15 15 15
13 13 14 13 12 13 12 11 11 12 13 13 13 12 12 13 13 14 14 13 13 13 13 12 11 12 12 12 12 11 11 10 10 10 10 10 9 10 10 9 9 8 8 9 8 8 8 8 9 8 8 8 8 8 8 8 8 8 8 8 8 8 8 8 9 9 9 9 10 10 11 11 12 12 12 13 13 13 13 14 14 14 14 15 15 15
13 14 14 13 12 12 12 11 12 12 12 12 12 12 12 13 13 13 12 11 11 11 11 11 11 11 11 11 11 10 10 10 10 9 9 9 9 9 9 9 9 8 8 8 8 7 8 8 8 8 8 8 8 8 8 8 8 8 8 8 8 8 8 8 8 8 8 8 9 9 10 10 11 11 12 12 12 13 13 13 14 14 14 15 15 14
14 14 14 13 12 12 11 11 11 11 10 11 11 11 11 11 11 11 10 10 10 10 10 10 10 10 10 10 10 10 9 9 9 9 9 9 9 9 9 9 9 8 8 8 8 7 7 8 8 8 8 8 8 8 8 8 8 8 8 8 8 8 8 8 8 8 8 8 8 8 9 9 9 10 10 11 11 12 12 13 13 14 14 14 14 14
13 14 13 13 12 12 11 11 11 11 11 11 11 11 10 10 10 9 9 9 9 9 9 9 9 9 9 9 9 9 9 8 8 8 9 9 9 9 9 8 8 8 8 8 7 7 7 8 7 7 7 7 7 7 7 7 7 7 7 7 7 7 7 7 7 7 7 7 8 8 8 8 9 9 9 10 10 11 12 12 13 13 14 14 14 14
13 14 14 13 12 11 11 11 11 11 11 11 11 11 10 10 9 9 9 9 8 8 9 9 9 9 9 8 9 9 8 8 8 8 8 9 9 9 8 8 8 8 8 8 8 7 7 7 7 6 7 7 7 7 7 7 7 7 7 7 7 7 6 6 6 6 6 7 7 7 8 8 8 9 9 10 10 10 11 11 12 12 13 13 14 13
13 13 13 13 12 11 11 11 11 11 10 11 11 11 11 11 10 10 10 10 9 9 9 8 8 8 8 8 9 9 8 8 8 8 8 9 9 8 8 8 8 9 8 8 8 7 7 7 6 6 6 7 6 6 6 7 6 6 6 6 6 6 6 6 5 5 6 6 6 7 7 7 7 8 9 9 10 10 10 10 11 11 12 12 12 12
12 12 12 12 12 11 11 11 12 11 11 11 11 11 11 11 11 11 11 10 10 10 10 9 9 9 9 9 9 9 9 8 8 8 8 8 8 8 8 8 8 8 8 8 8 8 7 7 6 6 6 6 6 6 7 6 6 6 6 5 5 5 5 5 5 5 5 5 5 5 6 6 6 7 7 8 8 9 9 10 10 10 11 11 11 11
Height
740 748 747 744 738 733 733 728 725 724 719 718 717 719 722 718 718 713 705 706 711 720 726 723 723 723 719 714 713 719 721 724 726 726 728 730 733 735 737 744 750 753 755 756 758 758 759 761 762 764 767 771 779 782 780 780 783 785 786 788 790 791 793 795 797 798 799 800 802 803 804 805 806 807 808 809 809 809 810 810 809 810 810 810 810 811
740 748 743 734 730 725 727 726 725 729 730 727 723 720 720 717 714 707 706 710 713 723 725 719 722 720 716 715 710 713 722 726 725 726 729 730 731 733 735 742 748 750 752 753 756 756 758 761 762 765 767 771 779 781 778 779 782 784 785 787 789 791 792 794 796 798 799 801 803 804 805 806 807 808 809 809 810 810 810 810 810 811 811 811 811 811
747 746 735 725 724 724 727 728 730 735 736 734 729 725 723 717 712 705 707 715 717 726 727 719 723 721 715 714 708 711 721 724 722 723 726 728 729 730 733 741 748 751 753 754 755 756 759 762 762 764 766 771 777 778 776 777 781 783 785 786 788 790 791 794 797 798 800 803 804 805 806 807 808 808 809 810 810 811 811 811 812 812 812 812 812 812
749 739 726 720 723 730 735 734 736 739 738 736 732 730 725 716 715 716 717 720 719 724 725 719 721 721 716 713 710 713 719 720 720 720 722 724 726 727 730 741 750 752 754 754 754 759 764 764 762 762 764 769 776 776 774 777 781 783 784 786 787 790 792 796 799 801 804 806 807 807 808 808 809 810 811 811 812 812 812 813 813 813 813 813 813 813
734 722 715 719 727 734 738 738 740 742 740 736 732 729 722 714 713 717 720 721 720 724 723 722 729 726 718 719 718 715 718 720 721 721 722 723 724 725 729 737 745 747 749 751 756 763 766 763 760 761 763 767 774 776 774 778 781 782 784 787 789 793 796 798 800 805 808 808 808 808 808 809 810 811 812 812 813 813 813 814 814 814 815 814 814 814
724 714 716 725 731 733 737 738 739 741 739 734 730 725 719 713 711 714 721 726 732 735 725 725 744 737 717 720 722 718 721 725 723 724 725 724 723 727 732 738 742 745 747 751 759 763 762 759 758 759 760 765 771 775 776 780 784 785 787 790 793 797 799 801 805 809 810 809 809 809 809 809 810 811 812 813 813 814 814 814 815 815 815 815 815 815
720 717 721 728 732 733 736 736 732 734 739 733 723 720 718 715 713 714 720 729 737 736 722 720 741 740 722 720 719 718 726 728 726 727 726 724 725 727 734 739 742 745 749 757 762 759 756 756 755 755 759 764 770 776 778 781 786 790 792 795 799 802 805 808 811 813 810 809 810 809 809 810 810 811 812 813 814 814 814 815 816 816 816 816 816 816
719 722 726 728 731 734 734 733 727 727 737 730 712 713 719 718 719 718 720 726 726 725 722 718 725 734 730 722 713 715 726 728 726 728 726 724 725 728 735 740 742 745 751 760 763 756 752 754 753 754 758 763 770 777 781 783 788 793 797 801 803 806 809 811 815 815 812 811 810 810 810 810 810 811 812 814 814 815 815 816 816 816 817 817 817 817
717 725 728 728 733 733 729 725 719 721 731 722 707 710 715 716 718 718 721 723 718 726 736 724 718 734 739 723 710 714 724 727 725 725 725 724 724 727 736 741 743 744 749 759 761 754 750 751 753 754 758 764 770 777 784 786 787 791 796 801 803 805 807 808 812 814 812 811 811 811 810 810 811 812 813 814 814 815 815 816 816 816 817 818 818 818
716 719 720 725 730 726 719 713 710 719 724 715 710 711 711 713 714 715 719 719 722 736 743 727 718 734 742 724 713 719 724 723 721 720 721 724 726 728 735 742 746 747 751 758 759 752 748 748 752 756 758 765 771 776 782 785 786 788 793 798 800 804 807 809 811 813 812 812 812 812 811 811 812 813 814 814 815 815 815 816 816 817 818 818 819 819
714 713 714 719 719 714 710 709 710 715 714 711 715 715 715 716 713 716 717 717 735 748 737 722 715 726 739 729 718 723 723 716 720 724 722 724 731 733 737 743 747 749 749 752 754 752 748 749 755 762 764 768 773 775 778 782 786 791 796 799 801 803 806 809 812 813 812 813 813 813 813 813 813 814 814 815 815 815 815 816 816 817 818 819 819 820
718 720 720 716 711 709 712 715 715 713 710 714 719 717 723 725 721 726 724 727 752 755 730 715 712 722 738 733 717 714 714 711 718 726 725 728 735 737 740 743 744 746 743 741 747 749 750 757 762 767 771 773 774 776 779 782 787 794 799 802 802 802 803 806 808 810 812 812 811 812 813 814 814 814 815 815 815 815 815 816 816 817 818 819 820 821
721 720 718 715 711 711 718 719 718 717 715 718 719 720 732 741 741 745 743 743 752 744 723 711 714 725 731 726 718 714 715 715 717 722 725 728 733 736 741 743 743 744 741 740 743 745 751 764 769 771 774 774 775 776 779 783 788 793 796 799 800 802 803 803 804 806 809 810 809 810 812 814 814 814 815 815 815 815 815 816 816 817 818 819 820 821
729 721 714 716 714 711 717 719 720 723 720 720 720 722 736 748 760 764 752 747 746 736 721 711 719 732 727 722 726 725 722 721 720 725 726 724 727 732 737 743 745 743 740 742 743 744 753 766 773 775 776 775 776 778 780 783 788 792 793 795 797 799 801 802 801 802 806 808 809 809 811 813 814 814 814 815 815 815 816 816 817 817 818 819 820 822
734 732 717 715 714 710 714 712 710 712 714 717 711 713 727 735 750 760 749 744 745 735 723 721 730 737 731 725 724 724 725 724 726 728 729 729 728 730 733 738 743 742 741 743 744 747 756 764 771 775 776 775 776 778 780 781 784 787 789 791 792 794 796 798 799 801 803 806 808 809 810 812 813 813 814 814 815 815 816 816 817 818 818 819 821 822
726 726 708 704 704 704 712 708 701 706 713 712 704 710 723 719 724 739 740 739 744 742 732 729 731 727 727 727 718 719 725 726 731 733 732 732 729 729 734 735 739 743 744 745 748 755 760 763 767 771 773 774 773 775 777 778 780 781 784 787 788 790 792 794 797 800 801 804 807 808 810 811 812 813 813 814 815 816 816 817 817 818 819 820 821 822
726 721 699 698 702 699 705 703 699 707 713 711 712 716 710 702 709 728 738 735 743 754 741 727 731 728 729 735 725 723 727 724 728 731 729 729 726 729 737 739 741 745 748 750 754 760 765 765 767 768 770 771 772 775 777 778 781 780 781 783 786 788 790 792 796 798 800 803 805 807 809 811 812 812 813 814 815 816 816 817 818 819 820 821 822 823
722 721 701 699 709 702 697 700 698 698 703 712 719 712 699 701 709 721 737 741 746 758 742 726 735 734 733 741 734 727 730 726 724 727 730 731 730 733 738 742 746 746 749 754 756 761 766 768 768 768 769 770 771 774 777 779 782 781 781 782 785 788 789 792 795 796 799 802 804 807 808 810 811 812 813 814 815 816 817 818 819 820 821 822 823 824
716 726 713 700 707 703 695 706 710 701 698 705 708 702 705 721 726 725 739 749 750 755 744 731 732 727 726 734 731 727 731 729 728 731 736 737 736 736 738 742 747 748 750 755 757 761 764 767 769 768 768 770 771 773 775 779 782 782 783 784 785 788 790 792 794 796 799 801 804 807 808 809 811 811 813 814 815 816 817 819 820 821 822 822 824 825
714 733 731 707 699 702 703 713 720 713 704 704 705 704 705 716 724 726 731 736 740 748 748 740 735 732 730 725 722 728 731 731 736 739 741 741 739 739 739 741 746 747 749 754 758 761 763 765 768 768 770 771 772 773 774 778 782 785 786 786 787 790 791 792 794 796 799 801 804 806 807 809 810 811 812 813 815 816 817 819 820 821 822 823 824 825
713 730 739 720 703 706 712 712 713 712 706 708 716 717 713 711 715 723 726 723 727 739 744 742 742 744 738 725 725 734 734 735 741 743 743 743 741 741 741 743 745 746 748 753 758 761 764 767 769 770 773 773 774 775 776 778 782 787 788 788 789 791 793 794 795 797 800 801 803 805 806 808 809 810 812 813 814 816 817 819 820 822 823 824 825 825
716 723 733 733 721 717 714 702 697 700 699 703 710 713 714 713 715 731 738 726 721 729 733 736 747 754 744 731 731 736 736 738 742 743 745 746 744 744 745 746 747 747 751 754 757 761 764 766 769 771 774 775 776 777 778 780 783 787 788 788 790 792 793 795 796 798 800 802 803 804 806 807 808 810 811 813 814 815 817 819 820 822 823 824 825 825
717 721 727 732 723 713 708 699 695 697 696 698 701 701 705 708 714 732 742 732 724 726 723 726 743 754 747 736 732 733 735 738 741 744 748 748 746 747 748 749 750 751 753 756 759 762 765 767 769 772 775 777 778 779 780 782 785 787 788 788 789 791 792 795 796 798 799 801 803 804 805 807 808 810 811 812 814 815 817 818 820 822 823 824 824 824
721 726 731 732 721 709 705 702 700 699 702 706 704 700 702 705 709 717 723 726 730 730 726 730 744 752 748 739 733 734 739 741 742 744 746 748 748 749 751 752 753 755 757 759 762 764 766 769 771 774 777 779 780 781 782 783 785 786 787 787 789 791 792 794 796 797 799 800 802 804 805 807 808 809 811 812 813 815 816 818 820 821 822 823 823 824
728 733 735 738 737 732 724 716 714 710 709 711 709 704 703 703 706 710 713 722 732 730 726 735 750 755 749 740 735 736 742 743 741 742 745 747 749 751 753 755 757 759 760 762 766 767 768 771 773 775 778 779 781 782 782 782 784 785 786 787 789 790 792 794 795 796 798 800 802 804 805 806 808 809 810 812 813 814 816 817 819 820 821 822 822 823
733 739 741 744 752 759 755 743 735 725 716 713 710 708 708 706 708 715 720 729 736 732 725 733 752 759 749 741 740 740 743 744 744 745 747 748 751 754 756 759 761 763 765 767 768 770 771 773 774 776 778 779 781 782 782 782 783 785 787 788 789 791 792 794 795 796 798 800 801 803 805 806 807 808 810 811 813 814 815 817 818 819 820 821 821 822
733 741 744 747 752 760 762 750 735 726 723 721 714 711 713 712 713 718 725 732 733 731 729 729 741 755 752 746 747 745 746 750 752 752 751 752 755 758 760 763 765 766 769 770 771 773 774 774 775 776 778 779 781 782 783 783 784 786 788 789 790 792 792 793 795 796 798 800 801 803 804 805 806 808 809 811 812 814 815 816 817 818 819 820 821 822
734 742 745 749 750 751 752 747 737 731 727 722 716 716 718 717 719 725 731 732 728 734 743 737 737 750 754 751 752 751 752 758 759 758 758 758 760 762 764 766 768 770 771 773 774 775 776 777 778 778 779 780 781 783 784 785 786 787 789 791 792 793 793 794 795 796 798 799 801 802 803 804 806 807 808 810 812 813 814 816 817 818 819 819 820 820
731 740 742 746 749 749 749 750 747 741 732 725 725 728 726 722 724 730 734 731 726 736 749 747 746 754 755 754 758 760 761 766 766 763 762 763 763 765 767 769 771 773 775 777 778 779 780 782 781 781 782 783 784 785 786 787 788 789 791 792 793 794 794 795 796 797 798 799 801 802 803 804 805 807 809 810 811 813 814 815 817 817 818 818 819 820
727 736 738 741 745 746 748 750 750 748 743 737 735 735 732 730 730 733 734 731 731 741 747 748 753 760 761 763 768 771 770 771 770 767 766 767 768 769 771 774 777 779 780 782 783 784 786 787 787 786 786 786 786 787 788 789 790 791 792 793 794 795 796 796 797 798 799 800 801 802 803 804 805 807 808 809 811 812 813 814 815 816 817 817 818 819
732 738 738 739 745 747 746 749 750 752 753 750 745 742 739 739 740 742 742 740 742 751 754 754 762 770 770 772 775 776 775 774 774 772 771 771 772 774 777 780 782 785 786 788 789 789 791 792 792 792 791 791 791 790 790 791 792 792 793 793 795 796 797 798 798 799 800 800 801 802 803 804 805 806 807 808 810 811 811 812 813 814 816 817 818 820
733 739 740 741 748 749 747 750 750 751 757 760 757 753 749 749 751 752 753 752 752 756 759 760 767 774 777 778 779 780 780 781 782 781 779 780 778 778 781 785 786 788 790 792 794 794 795 796 796 797 797 796 796 795 794 794 794 795 795 795 796 797 798 798 799 799 800 801 801 802 803 804 805 806 807 807 808 809 810 811 812 813 815 815 817 820
729 737 742 743 749 750 746 748 749 752 760 762 757 754 753 756 759 757 758 761 758 756 758 759 762 770 775 779 784 787 788 790 792 791 790 792 791 789 791 793 795 794 794 796 799 799 799 799 800 801 802 801 800 800 799 799 799 799 798 798 798 799 799 799 799 800 800 801 802 802 803 804 805 805 806 807 808 809 809 810 811 813 814 815 816 819
735 738 741 743 751 753 747 745 751 760 766 764 757 754 753 756 761 763 767 769 764 759 756 756 761 769 776 782 788 794 797 800 802 802 800 799 801 804 806 807 808 807 806 807 808 806 805 804 805 806 806 806 806 805 804 803 802 801 800 800 800 801 800 799 799 800 801 801 802 803 804 804 805 806 806 807 808 809 809 810 811 812 813 814 815 817
749 751 747 748 756 760 755 755 764 768 766 763 762 758 753 755 760 767 771 770 767 766 763 763 767 772 777 786 793 799 805 809 810 811 810 809 811 814 817 818 818 818 819 819 816 813 812 812 812 812 811 811 811 810 809 807 805 804 803 802 803 802 801 800 801 802 803 803 804 804 805 805 806 807 807 808 808 809 809 810 810 811 812 812 813 814
748 752 750 750 755 763 765 766 771 772 766 765 766 760 756 757 760 765 771 771 768 767 769 773 776 779 785 792 799 804 809 812 814 818 819 819 819 820 821 822 823 823 824 824 822 819 818 818 818 817 816 817 816 816 815 813 810 808 806 805 804 804 803 803 803 804 805 805 806 806 806 807 807 808 808 808 809 809 809 809 810 811 812 812 812 812
733 741 748 748 747 754 759 760 766 772 769 767 767 763 762 765 763 761 769 775 770 765 771 779 783 786 791 794 798 802 803 806 812 817 819 820 820 822 823 824 825 825 825 825 824 821 821 821 821 820 820 821 822 822 820 819 816 813 810 808 807 805 805 806 806 807 808 808 808 808 808 808 808 808 809 809 809 809 809 809 810 810 811 811 811 811
729 738 748 751 746 744 748 751 759 769 771 768 767 768 767 769 767 763 767 776 773 765 770 781 785 788 792 794 796 797 796 800 810 812 813 816 817 818 821 822 823 824 825 824 823 821 821 822 822 822 823 824 825 825 824 822 821 818 815 813 810 808 808 809 810 810 810 810 810 810 809 809 809 809 810 809 809 809 809 809 809 809 810 810 810 810
734 736 742 748 747 746 748 749 751 764 774 772 770 771 769 768 768 767 770 777 776 768 769 777 781 784 787 790 792 792 790 797 807 809 809 812 814 815 818 819 819 821 823 824 824 822 822 822 823 823 824 826 827 826 824 824 823 821 819 816 814 812 811 812 813 813 812 812 812 811 811 811 810 810 810 810 810 809 809 809 809 808 808 809 809 809
742 739 740 744 745 745 749 750 753 769 781 778 773 773 772 770 772 772 772 777 778 773 770 774 778 779 781 784 787 790 791 794 801 807 809 812 814 816 817 818 819 820 821 823 824 823 822 822 823 824 825 826 826 825 824 823 822 821 819 817 816 815 814 814 815 814 814 813 813 812 812 811 811 811 811 811 810 810 810 809 808 808 808 808 807 808
748 746 745 746 745 744 748 752 761 778 785 779 777 779 776 774 774 774 776 780 782 779 776 778 781 781 782 784 788 794 799 801 803 808 811 813 815 817 819 820 821 821 822 823 824 824 823 823 823 824 824 824 824 823 822 822 821 820 819 818 817 816 815 815 815 814 814 814 813 813 812 812 812 811 811 811 811 810 810 809 808 807 807 807 806 806
753 753 749 748 748 750 753 754 762 779 787 782 780 782 780 778 779 780 780 782 783 783 783 786 789 789 789 793 797 801 805 807 809 812 813 815 817 819 820 821 822 822 823 823 824 824 824 824 823 824 824 823 823 822 821 821 820 819 819 818 817 817 816 816 815 815 815 814 813 813 812 812 812 811 811 811 811 810 809 808 808 807 806 806 805 804
759 760 752 752 756 756 756 759 767 782 791 785 781 783 784 786 789 789 785 783 785 787 788 790 793 794 795 800 803 805 808 810 813 814 815 818 819 820 822 823 823 824 824 824 824 825 825 824 823 824 824 823 823 822 821 821 820 819 819 818 818 817 817 816 816 815 814 814 813 812 812 811 811 810 810 810 809 809 808 807 807 806 805 805 804 803
764 765 758 763 769 764 765 776 785 788 788 783 781 785 787 788 791 790 787 787 790 791 793 796 798 798 799 802 805 807 810 812 814 815 817 819 820 822 823 824 824 825 825 825 825 825 825 824 824 824 824 823 822 822 821 821 820 819 819 819 818 817 817 816 815 815 814 813 812 812 811 810 809 809 808 807 807 807 806 806 805 804 804 803 802 802
770 770 767 772 777 774 777 788 792 787 784 784 785 787 789 788 788 787 788 792 793 794 797 801 804 805 805 806 807 808 811 813 815 816 818 819 821 822 823 823 824 825 825 825 825 826 825 824 824 824 823 823 823 822 822 821 821 820 820 819 818 818 817 816 815 814 813 813 811 810 809 808 807 807 806 805 805 804 803 803 803 802 801 801 800 800
771 770 769 774 779 782 785 789 789 789 791 792 791 792 792 792 791 791 794 798 801 802 804 806 809 810 810 808 809 811 814 816 817 818 819 820 821 823 823 824 824 825 825 825 825 825 825 824 823 823 823 823 823 822 821 821 821 820 820 819 818 817 816 815 814 813 813 812 810 809 808 807 806 805 804 804 803 802 801 800 799 798 798 797 797 797
771 770 771 774 778 783 790 793 792 794 797 797 798 799 799 798 800 801 803 805 808 809 810 812 813 813 812 812 812 814 816 818 818 819 820 821 822 823 823 824 824 824 824 824 825 825 825 824 823 823 823 822 822 821 821 821 820 819 819 818 817 816 815 814 813 812 811 810 809 808 807 806 805 804 803 802 801 799 798 797 796 795 794 793 793 794
774 772 772 775 778 783 790 793 794 795 797 797 798 801 803 805 807 809 810 811 813 813 814 815 815 814 815 815 815 816 818 819 820 820 820 821 822 822 823 823 824 823 823 824 824 824 824 823 824 824 824 823 823 822 822 821 820 820 819 818 817 816 815 814 813 812 811 810 809 808 806 805 804 803 802 800 799 797 796 794 793 792 790 790 790 790
775 773 773 777 783 788 791 793 795 797 798 798 798 800 804 807 809 811 813 814 814 815 815 816 816 817 817 818 818 818 819 820 821 821 821 821 822 823 823 823 823 822 823 823 824 824 824 824 825 825 824 824 823 823 822 821 820 819 818 817 816 815 814 814 813 812 811 810 808 806 805 804 802 800 799 798 797 796 794 792 791 790 789 788 787 787
776 776 775 778 784 789 791 792 794 795 797 799 800 801 803 805 807 809 810 810 812 814 815 816 818 819 819 819 820 820 820 820 822 823 822 822 823 824 824 824 823 822 823 823 824 824 824 825 825 825 824 824 823 823 822 821 820 819 818 817 816 815 814 813 812 811 810 809 807 806 805 804 801 799 797 795 794 793 791 790 789 788 787 787 786 785
783 784 783 782 784 786 789 791 792 792 794 798 801 802 803 805 805 806 808 809 811 814 815 816 817 817 818 820 821 821 821 822 823 823 823 824 824 824 824 824 823 823 824 824 824 824 824 825 825 825 824 823 823 822 821 820 819 818 817 816 815 814 813 812 811 810 809 808 807 806 805 804 802 800 798 795 793 791 789 788 786 785 784 784 784 784
Wind_Speed
9 7 9 8 9 11 12 15 12 7 9 8 9 10 13 11 9 13 11 10 10 10 12 16 14 15 16 14 12 12 12 12 13 13 10 10 10 11 12 13 12 11 11 14 17 15 13 13 12 12 13 15 18 19 20 20 17 17 15 13 12 11 12 14 14 14 12 10 10 9 9 8 7 8 7 7 6 6 6 6 6 5 5 4 4 4
8 8 9 11 12 10 11 15 10 5 8 7 8 7 10 11 8 14 11 10 9 8 9 13 15 15 13 14 13 13 12 12 13 13 12 13 12 11 12 14 12 9 10 13 13 13 14 13 12 12 13 16 21 19 20 19 16 16 15 14 13 11 14 17 16 16 13 10 10 10 10 9 9 9 8 8 7 6 7 6 6 6 5 5 4 4
8 8 11 12 10 5 4 7 7 6 8 8 8 7 7 8 8 11 9 7 7 6 8 12 13 12 12 15 13 12 11 11 12 13 12 13 12 11 12 13 11 9 11 13 12 12 12 11 12 13 12 17 24 21 21 18 15 16 16 15 13 13 17 17 16 16 12 10 10 10 10 10 9 9 8 8 8 7 8 7 6 6 5 5 5 4
7 9 14 12 6 4 4 5 6 7 8 9 8 8 7 8 10 8 8 8 8 7 9 11 10 10 11 13 10 10 11 10 11 14 13 13 12 11 12 13 12 13 13 14 12 9 7 8 12 12 12 17 25 23 21 15 13 15 15 15 15 16 19 17 15 14 11 10 11 9 9 9 9 10 10 9 9 7 8 7 6 6 5 5 5 4
9 7 10 9 7 8 10 8 9 8 7 10 11 10 9 10 12 6 5 8 8 8 10 10 7 9 10 12 10 9 11 10 11 13 13 13 12 10 11 13 13 13 13 13 11 10 7 11 13 13 14 16 24 24 21 16 14 13 14 17 19 18 19 17 15 15 12 10 13 12 11 11 11 11 10 9 8 7 7 6 6 6 5 5 5 4
10 3 5 6 7 10 11 9 11 10 8 10 12 14 13 11 11 7 7 7 6 8 11 10 8 8 10 13 12 10 10 11 10 12 14 14 13 11 10 11 12 10 11 10 11 11 12 15 16 16 16 15 20 23 20 18 17 13 11 14 17 15 14 14 16 18 15 13 13 13 12 12 12 11 9 9 8 7 7 6 7 6 6 5 5 5
7 6 7 8 8 11 12 10 12 12 9 8 11 16 17 13 11 9 9 8 7 5 8 13 10 6 9 13 14 12 12 13 13 12 15 14 13 12 10 10 10 10 9 7 10 13 14 16 18 17 16 15 16 20 19 17 16 12 11 13 15 13 12 12 13 15 15 14 12 12 12 11 11 11 10 9 8 8 7 7 7 6 6 6 6 6
7 6 6 9 10 11 10 9 11 13 11 8 7 14 16 14 11 9 8 8 7 3 4 12 11 7 6 9 13 15 14 16 16 14 15 13 13 12 11 10 10 10 10 9 9 13 13 15 18 17 14 13 13 18 17 15 13 11 10 13 16 17 17 14 9 8 10 12 12 11 10 10 10 11 11 10 9 9 9 8 7 7 7 7 7 6
9 10 8 10 10 8 9 10 11 14 12 7 4 10 13 14 13 10 10 9 7 5 5 10 11 8 6 7 12 15 14 16 17 16 14 13 13 12 12 10 9 9 9 11 11 13 12 14 16 16 13 12 14 17 17 15 12 9 8 11 15 16 18 17 13 8 6 9 11 10 9 10 10 11 11 10 10 10 9 9 8 7 7 7 7 7
6 11 11 11 11 8 11 11 10 14 12 4 4 9 10 12 13 10 10 8 7 7 7 9 11 8 6 7 10 11 12 14 13 13 12 10 10 10 12 11 10 9 8 12 13 13 14 14 12 12 10 12 15 18 20 19 16 11 8 10 12 12 13 14 15 13 7 6 8 8 9 10 11 11 10 10 10 10 10 9 8 8 8 8 7 7
1 3 6 10 12 7 5 4 5 11 12 4 4 9 8 8 9 8 8 7 6 8 9 9 11 10 6 7 9 9 10 10 8 7 9 10 11 10 11 11 11 11 10 13 15 14 15 11 5 7 7 11 15 19 23 24 20 15 11 13 13 12 13 13 12 11 9 8 7 6 9 10 11 11 10 10 10 10 10 9 9 8 8 8 8 7
5 6 6 9 12 5 1 4 5 10 11 6 6 9 8 7 7 7 7 6 6 7 9 10 11 11 7 4 7 11 10 7 8 9 9 10 11 10 9 9 10 10 9 10 11 13 13 6 10 13 14 16 19 21 25 28 26 23 21 20 18 16 18 20 17 12 10 10 9 8 9 10 10 10 10 10 10 10 10 10 9 9 9 9 9 8
9 9 10 11 11 7 7 7 8 8 9 8 9 9 7 6 6 7 7 6 8 6 6 8 10 10 6 2 4 7 8 5 5 8 8 8 11 11 9 10 10 9 8 6 7 9 9 10 11 14 17 19 21 21 25 30 29 26 27 28 25 23 24 25 22 17 14 11 10 11 10 10 10 10 10 10 10 10 10 10 10 10 10 10 9 9
7 9 13 13 9 9 11 8 7 8 9 9 9 8 7 6 6 7 7 7 8 6 5 6 6 7 7 6 9 7 6 4 4 5 5 8 10 12 12 12 10 9 8 6 6 4 10 15 15 14 13 13 17 19 22 26 25 23 24 26 28 27 26 26 24 22 18 12 10 12 12 10 10 10 10 10 10 10 9 10 10 10 10 10 10 10
9 8 12 13 9 11 13 12 7 7 9 10 10 8 7 6 5 6 6 5 6 5 7 7 5 6 6 5 9 10 10 7 4 3 5 6 8 11 12 13 10 7 6 5 4 6 14 19 19 16 13 12 17 20 21 22 23 22 20 22 28 28 27 28 25 23 19 12 10 13 11 10 10 10 10 10 9 10 9 10 10 10 11 11 11 11
10 7 11 15 12 12 15 14 11 8 8 9 9 9 8 7 6 4 2 1 2 4 5 7 4 3 3 3 5 8 12 13 10 8 8 8 10 10 10 11 9 7 6 5 5 12 16 18 19 18 15 13 15 18 19 21 21 22 22 24 27 27 28 29 25 23 19 13 11 12 12 11 10 10 10 9 10 10 10 10 10 10 11 11 12 12
8 6 9 16 13 11 14 14 12 10 6 5 7 9 7 6 6 5 3 3 1 5 4 5 5 4 6 4 3 5 8 12 13 11 8 7 8 10 11 11 9 8 8 6 9 13 14 15 16 15 13 12 11 10 12 16 16 19 22 22 21 21 23 24 22 20 18 15 13 13 13 12 11 11 10 10 11 10 10 10 9 10 10 11 12 12
6 5 6 13 13 12 10 9 11 11 7 5 6 8 6 4 5 5 4 3 5 7 6 6 7 7 6 5 8 11 9 9 10 9 8 7 8 9 10 11 11 11 11 11 13 16 14 13 13 13 11 10 8 4 6 10 11 12 15 16 16 15 17 17 15 14 14 14 13 14 13 12 12 11 11 11 11 11 10 10 10 10 10 11 11 12
6 6 5 10 13 13 10 8 10 10 11 10 5 5 6 5 5 5 4 4 6 7 6 7 8 8 5 4 10 13 10 9 9 8 9 7 7 8 10 12 13 13 13 12 13 14 13 13 14 14 13 10 7 5 5 7 8 8 10 11 13 13 14 13 11 11 11 12 13 13 13 12 12 11 12 12 12 11 11 10 10 11 11 11 11 12
5 5 4 8 11 10 9 9 9 8 11 12 8 6 7 5 5 5 4 5 7 6 6 7 8 5 2 2 7 10 8 9 9 7 8 7 8 9 9 11 12 12 11 11 11 12 11 12 13 15 15 10 8 9 10 8 7 7 7 9 11 11 12 11 11 10 11 12 12 12 13 12 12 12 12 13 12 12 11 10 10 11 11 11 11 12
6 5 4 6 8 7 7 8 11 10 10 10 9 8 7 5 4 5 5 5 6 6 5 7 6 3 5 7 5 9 8 9 9 8 8 8 9 10 10 10 9 10 10 11 11 11 10 10 11 13 14 12 9 10 12 12 9 7 8 10 12 12 11 11 10 9 10 11 11 11 12 11 12 12 12 14 14 12 11 11 11 10 10 11 11 12
5 6 6 6 7 7 7 8 12 13 9 7 9 10 10 8 6 6 7 6 6 6 5 6 3 4 4 6 5 9 8 9 10 9 9 9 10 11 11 10 10 10 10 10 10 10 9 10 12 14 14 14 12 10 10 12 11 11 12 13 14 14 13 12 11 11 10 10 10 11 11 11 11 12 12 14 14 13 13 12 12 11 10 11 11 12
1 3 6 8 8 7 4 3 5 7 8 8 8 9 10 9 8 7 7 6 6 6 6 7 4 3 2 4 3 6 7 9 10 11 10 10 11 11 11 11 10 10 10 10 10 9 9 10 12 13 12 12 11 10 10 10 11 12 13 13 14 14 15 13 12 11 11 10 10 10 11 11 12 13 13 14 14 14 14 14 13 12 11 10 11 12
1 4 6 8 8 7 5 3 4 5 7 9 8 7 9 9 8 8 7 5 6 7 7 7 5 3 3 2 1 6 8 9 10 11 11 10 10 11 11 11 10 10 11 10 10 9 10 12 12 11 10 10 9 9 9 10 11 13 13 12 12 13 13 12 11 11 10 10 10 11 11 12 13 13 14 14 14 14 15 14 13 13 12 11 11 12
3 4 6 7 7 7 8 8 6 7 7 8 9 9 11 11 11 9 6 5 7 7 7 6 3 3 3 0 2 6 9 10 11 11 10 10 10 10 10 10 10 10 10 10 10 9 10 11 11 11 11 10 9 8 9 9 10 11 11 10 11 11 11 11 10 11 10 10 10 10 11 12 12 13 14 14 14 14 15 15 13 13 12 11 11 12
2 1 2 5 5 4 5 4 3 5 6 7 10 10 10 12 13 9 5 6 7 7 9 7 2 5 5 4 6 7 9 10 10 10 9 9 10 10 9 9 9 9 9 10 10 10 9 9 10 11 11 11 10 9 8 9 10 10 10 9 9 10 10 10 10 9 9 9 9 9 10 11 12 13 14 14 14 14 14 14 14 13 12 12 12 12
3 2 2 1 2 1 3 6 9 8 6 9 12 12 9 10 11 9 8 8 6 6 9 6 8 11 8 8 8 7 9 9 8 8 8 8 10 10 9 9 8 8 9 9 9 9 9 8 9 11 11 11 11 10 9 10 10 10 10 8 8 8 8 9 9 9 9 8 9 9 9 10 11 12 13 13 13 13 14 14 14 13 12 12 12 12
3 4 5 4 3 2 4 8 13 13 9 8 7 7 8 8 8 8 8 6 4 4 5 3 13 14 10 10 10 8 8 8 6 7 8 8 9 9 9 9 9 9 8 8 8 9 9 8 8 8 10 10 11 11 11 11 11 11 10 9 8 7 7 7 7 8 8 8 8 8 8 8 9 9 11 11 11 12 13 13 12 12 11 11 11 12
4 5 7 7 8 6 4 7 11 12 9 5 4 3 2 3 6 6 5 3 3 3 2 8 14 13 10 10 10 9 8 7 6 7 8 8 9 10 9 10 10 9 10 10 9 9 10 9 7 8 9 10 11 12 11 12 11 11 10 9 8 8 7 6 6 7 7 6 6 6 6 7 7 7 9 9 10 10 10 10 9 9 9 9 10 11
4 4 7 8 9 8 7 6 6 8 8 6 4 5 5 4 4 3 4 4 4 6 9 13 16 13 9 8 8 8 6 7 6 6 8 9 9 10 11 12 11 10 10 11 10 10 11 10 8 9 9 9 10 11 11 11 11 11 11 10 9 9 8 7 7 7 7 6 6 6 5 5 5 5 6 7 8 10 9 8 8 9 10 11 13 13
3 3 6 6 7 7 8 7 7 7 7 7 5 6 6 5 7 7 7 7 8 11 12 14 16 12 8 7 8 6 5 6 7 8 9 8 9 10 11 12 13 12 11 11 11 11 11 11 11 11 11 10 9 9 10 10 10 9 10 10 9 8 8 7 8 7 7 7 6 6 6 5 4 4 4 4 6 8 8 8 9 10 12 13 14 13
5 3 4 6 7 5 7 8 8 8 7 9 8 6 5 4 6 6 6 7 6 9 11 11 10 8 8 9 9 7 8 9 10 10 9 7 7 10 11 11 11 12 12 13 12 12 12 12 12 12 12 11 11 10 9 9 9 8 8 8 8 7 7 7 8 7 6 6 6 5 5 4 4 3 3 3 3 5 6 7 8 9 9 10 10 11
5 5 4 6 6 6 7 9 8 6 7 7 8 6 2 3 5 5 7 9 9 4 6 6 7 9 11 11 10 9 11 12 12 11 10 10 11 11 13 13 12 12 13 13 13 13 12 13 14 14 13 12 12 11 10 10 10 9 9 9 7 6 7 7 8 7 7 6 6 5 4 3 3 2 2 2 3 3 4 6 7 7 7 8 10 13
3 4 4 3 4 5 6 7 7 7 7 3 1 0 2 4 5 5 6 7 8 7 6 8 11 12 12 11 11 11 11 12 13 13 13 13 13 13 14 14 14 14 13 13 13 14 15 16 16 15 14 14 13 12 11 10 9 9 9 9 7 6 7 8 8 8 7 7 6 6 4 3 3 2 1 1 2 3 4 5 5 6 7 7 9 11
3 4 3 2 2 2 1 4 6 7 3 1 3 1 2 5 9 10 8 6 7 8 10 12 12 13 13 12 12 13 13 13 13 13 14 13 12 12 11 11 12 12 11 11 12 14 17 19 19 18 18 16 14 13 12 11 9 8 8 8 7 6 7 8 8 8 7 6 5 5 4 4 3 3 2 1 1 2 4 5 5 6 7 7 8 9
5 6 4 3 4 2 2 5 5 2 2 3 2 2 3 7 10 9 7 6 6 9 11 12 13 14 14 15 14 14 15 14 11 9 9 9 8 8 8 9 10 9 9 8 9 12 15 16 17 19 20 21 20 17 15 13 10 8 7 7 6 6 6 7 8 7 6 5 5 4 4 3 3 2 2 2 1 3 4 4 5 6 7 7 8 9
4 4 4 5 6 5 5 5 2 2 3 4 4 3 3 3 2 1 4 6 4 6 10 12 13 14 14 15 15 15 15 14 10 7 9 8 7 8 8 7 7 7 7 6 6 9 11 12 13 15 16 18 20 19 18 18 14 10 8 8 7 7 7 7 7 7 6 5 5 5 5 4 4 4 3 3 3 4 5 5 5 6 7 7 8 8
4 2 4 6 6 5 6 6 4 3 4 2 4 3 2 3 5 5 4 6 3 4 10 12 13 15 14 14 15 15 12 10 8 7 9 11 10 11 11 11 10 9 8 7 6 7 9 9 9 10 11 11 13 14 15 16 16 13 10 9 9 8 7 7 7 7 6 6 7 6 6 5 5 5 6 5 6 6 6 6 7 7 8 8 8 8
4 3 5 6 6 5 6 7 5 3 1 2 5 4 2 2 4 3 2 5 4 5 9 11 12 14 13 13 14 11 7 5 7 7 8 9 10 9 9 9 9 9 9 8 7 7 7 6 5 5 6 6 7 8 8 9 10 11 10 10 9 8 7 6 6 7 7 7 7 7 7 7 7 6 7 7 7 7 7 7 8 8 8 9 9 9
4 4 6 7 7 6 6 7 3 2 3 3 3 4 4 4 3 4 5 5 5 5 7 9 11 11 11 11 10 5 2 3 7 9 9 9 9 8 7 7 7 7 7 8 8 7 6 6 5 5 5 4 5 7 7 7 7 8 8 9 8 8 7 6 7 8 8 8 8 8 8 7 7 7 7 8 8 8 8 8 9 8 8 10 10 10
3 4 5 7 7 5 5 5 1 4 4 3 3 4 6 4 2 3 3 5 6 6 7 8 7 7 7 7 5 6 8 8 9 10 10 9 9 8 7 7 7 7 7 8 7 7 7 6 5 6 7 7 7 8 8 8 8 8 9 8 8 8 8 8 8 8 9 10 10 10 9 8 8 8 8 9 9 10 9 9 10 9 9 11 11 11
2 3 5 6 6 5 4 5 2 3 4 4 3 4 7 4 2 2 4 7 8 8 9 9 7 6 6 7 8 9 10 10 10 10 9 8 7 6 6 7 6 6 7 7 7 7 8 6 5 6 8 8 9 9 9 10 10 9 9 8 8 9 9 9 9 9 10 11 11 10 10 10 10 10 10 11 11 11 11 11 12 11 11 12 13 13
3 3 5 2 2 4 4 4 2 2 3 3 1 3 4 3 3 4 5 7 8 8 8 8 7 7 8 9 10 10 10 10 9 8 8 8 7 6 6 6 6 6 7 6 6 8 8 7 6 7 8 8 9 10 10 10 10 10 10 10 10 11 11 10 10 11 11 11 11 11 12 13 13 13 13 13 13 13 13 14 14 14 14 15 15 16
4 4 4 3 4 4 3 1 1 2 3 2 2 4 5 5 6 5 5 6 7 7 7 6 6 6 7 7 8 9 9 8 7 7 7 6 6 6 6 6 6 6 6 6 6 7 8 7 7 7 8 8 9 10 10 10 11 11 11 11 12 12 12 12 12 12 12 12 12 13 13 14 15 15 15 15 15 15 16 16 16 16 17 17 17 17
4 4 2 4 5 4 4 4 3 3 5 6 5 6 7 6 6 6 6 6 5 5 6 6 6 6 6 6 6 7 8 7 7 7 6 5 5 5 5 5 6 5 5 5 6 7 8 7 6 7 7 8 9 9 9 9 9 10 11 11 11 12 13 13 13 13 13 14 14 15 15 16 16 16 17 17 17 17 17 18 18 19 20 20 20 20
4 3 2 3 6 6 6 6 5 5 7 8 7 8 7 6 6 6 8 8 7 7 7 6 6 6 6 5 6 7 7 6 6 6 5 5 5 5 5 5 5 5 5 5 6 7 7 6 6 7 8 8 9 8 8 8 8 9 10 10 11 12 12 12 13 13 13 14 15 16 17 17 17 18 18 18 19 19 20 20 20 21 22 23 23 22
3 2 1 2 4 4 4 6 7 7 7 8 8 8 8 8 8 9 8 8 8 8 7 7 6 6 7 7 7 6 6 6 5 5 4 4 4 4 4 5 5 5 5 6 7 7 7 6 7 8 9 9 9 9 9 10 10 11 12 12 13 13 14 14 14 14 14 15 15 15 16 17 17 18 18 19 20 20 21 21 22 22 23 24 24 24
2 2 1 1 1 2 5 8 8 7 7 7 6 7 7 7 8 8 8 7 7 6 6 6 5 5 6 6 6 6 6 6 5 4 3 3 3 4 5 5 6 6 6 7 7 7 7 7 8 9 9 9 9 10 10 11 12 12 13 14 14 14 15 16 16 16 17 17 17 17 17 17 17 18 18 19 19 20 21 22 22 22 23 24 26 25
2 2 1 1 3 5 7 9 9 8 7 7 6 7 7 7 8 9 8 7 7 6 6 6 6 6 6 5 5 5 5 5 5 5 4 3 4 5 5 5 5 5 6 7 7 7 7 8 8 9 9 9 9 10 11 12 13 14 14 15 15 16 16 17 17 18 18 19 19 18 18 18 19 19 19 20 20 21 22 23 22 23 23 22 22 21
3 3 2 0 3 3 5 8 7 4 4 6 7 7 7 7 7 7 6 6 6 5 5 5 6 6 6 6 5 4 3 4 5 5 4 4 4 4 4 4 5 5 6 6 6 6 7 8 8 8 9 9 10 11 12 14 15 15 16 16 16 16 17 17 18 18 18 18 18 18 18 18 20 20 20 21 21 21 22 23 25 26 26 24 21 17
3 4 4 1 0 3 5 7 4 1 3 7 8 6 6 5 3 3 3 4 5 4 3 2 3 4 4 5 4 4 4 4 4 5 5 4 4 4 4 4 4 4 4 4 5 6 7 8 8 8 9 9 10 12 14 15 17 17 17 17 16 16 16 17 17 17 17 16 16 17 17 18 19 20 20 21 22 21 22 23 24 27 28 29 29 27
Wind_Direction
200 211 217 218 223 210 212 226 233 275 297 272 237 212 221 229 203 222 216 151 185 212 202 217 222 219 230 223 189 182 196 207 218 215 202 198 192 196 184 159 165 175 168 171 182 198 196 191 189 172 172 163 132 130 161 173 162 159 163 157 155 159 155 159 164 161 159 159 157 157 154 154 151 146 140 133 124 115 109 102 101 100 97 98 96 98
210 221 221 218 230 222 208 226 239 291 299 278 263 234 218 231 212 206 198 145 177 225 210 212 227 225 222 232 215 183 190 208 215 212 203 205 200 197 184 160 164 176 167 170 182 193 187 181 179 168 172 156 132 143 174 174 159 156 162 159 157 161 162 170 173 161 162 168 163 163 158 152 148 145 142 132 122 115 110 103 101 100 95 94 89 85
215 229 230 218 221 230 206 227 245 256 255 249 255 254 225 225 222 195 162 137 177 210 228 217 224 229 219 232 223 180 191 213 213 212 207 210 206 196 181 157 161 177 171 173 180 182 174 170 173 169 175 156 137 153 180 174 157 156 163 165 161 163 166 176 178 163 164 175 169 165 153 147 142 132 126 122 120 119 116 112 106 102 99 97 91 87
210 219 227 213 175 193 218 226 240 239 237 242 243 245 234 214 218 204 161 184 200 200 241 237 225 229 223 226 212 176 196 212 211 215 208 209 211 198 178 158 167 183 175 175 172 158 157 183 186 178 179 156 138 157 183 172 157 162 167 172 165 164 174 178 169 165 179 177 162 155 139 130 122 116 114 117 119 119 118 117 112 108 105 101 96 89
232 205 205 193 152 194 221 214 223 233 223 227 235 240 240 217 217 218 169 192 199 200 238 252 238 228 215 210 204 187 200 207 207 212 207 206 209 196 175 162 166 178 179 177 157 136 169 204 198 188 186 163 143 160 183 168 160 177 176 176 170 168 179 174 164 181 195 166 147 143 131 120 116 121 128 128 125 125 125 121 116 114 112 106 99 90
241 154 144 188 177 202 219 211 211 224 226 220 224 238 251 242 221 194 154 184 212 206 211 224 239 230 200 202 210 195 193 204 204 207 208 205 202 189 171 161 160 176 186 171 142 152 193 199 193 192 189 175 151 157 176 165 159 180 176 171 175 175 176 170 179 191 177 153 150 147 141 138 137 140 143 138 134 134 128 123 121 117 111 107 100 92
231 149 165 214 210 208 217 219 210 211 234 234 204 219 245 258 241 207 180 199 227 224 193 203 232 241 196 200 208 193 190 204 202 205 209 204 200 189 169 161 160 179 187 146 145 179 198 192 190 194 189 181 154 144 162 164 156 170 174 169 169 166 166 171 185 183 160 154 159 154 150 151 148 145 139 137 136 130 124 123 122 116 112 109 101 96
221 185 186 206 210 213 216 223 209 201 227 249 189 196 223 241 242 229 220 221 230 248 191 203 229 245 210 199 197 187 190 204 200 203 209 204 201 184 162 162 168 185 174 136 167 200 202 193 191 195 187 171 144 126 139 157 156 157 158 152 145 143 157 168 178 188 171 160 158 158 157 151 143 138 134 135 133 127 128 130 128 125 118 111 106 99
204 216 202 197 208 214 217 222 205 199 222 250 203 193 212 225 227 224 231 236 234 239 221 212 223 236 226 200 189 183 192 204 198 199 204 202 201 176 151 163 180 193 167 144 184 213 214 204 192 192 181 146 119 108 120 142 150 147 138 143 145 143 152 158 159 175 176 156 160 163 152 143 135 133 136 137 134 131 134 134 131 126 118 111 106 100
184 214 204 197 209 213 220 219 189 195 217 232 219 215 214 222 224 223 229 233 229 234 241 224 213 222 224 190 179 180 198 204 193 195 196 189 198 179 156 166 181 195 181 163 183 208 222 217 191 179 165 127 107 106 121 131 135 148 145 129 128 122 132 148 160 168 157 144 164 158 138 136 134 137 141 137 136 137 137 136 133 128 124 119 111 101
85 215 208 205 217 225 216 199 173 208 218 200 217 222 214 219 223 225 232 235 231 231 242 230 212 224 223 177 175 191 210 206 175 185 196 180 186 180 161 167 182 195 190 171 174 195 213 208 135 93 79 92 105 112 120 123 125 138 133 112 111 117 131 147 162 170 155 142 152 143 132 138 141 144 145 142 144 144 141 141 139 135 130 123 116 107
221 210 209 217 232 262 259 186 200 229 229 220 227 219 207 207 209 214 218 225 235 234 237 222 206 219 227 188 188 186 186 190 172 180 193 176 173 169 158 175 190 196 191 172 171 183 187 151 75 72 79 100 119 120 120 125 130 136 137 135 142 147 150 155 162 168 160 151 148 142 141 147 150 150 150 152 152 148 147 146 143 139 133 127 121 111
217 207 198 209 222 234 240 211 188 213 227 221 224 222 212 203 204 218 209 209 230 233 237 219 198 212 220 112 92 130 132 129 138 156 177 182 177 169 168 189 197 192 184 177 185 180 150 118 103 109 117 126 132 127 124 130 136 142 148 151 152 152 154 157 161 163 164 162 155 149 150 153 156 157 157 157 154 152 152 149 148 145 139 134 126 115
207 206 202 206 203 204 230 231 179 187 210 213 219 220 215 204 207 226 216 211 225 213 206 214 198 217 215 125 98 112 128 117 89 118 179 198 183 175 178 189 194 184 169 172 201 177 107 114 127 134 140 142 135 129 130 137 144 151 157 157 154 154 157 158 161 165 166 171 165 157 154 155 160 163 160 158 157 155 153 152 153 150 143 137 129 122
205 206 201 205 196 184 213 241 233 199 196 209 226 227 221 218 215 233 236 229 235 213 191 193 199 226 224 143 128 144 145 142 136 156 193 192 174 175 176 175 174 161 154 182 187 108 97 116 133 141 149 149 141 141 143 147 151 153 154 153 151 154 159 160 164 167 166 170 169 160 156 160 164 163 162 160 158 157 156 156 155 150 145 140 134 130
221 218 195 204 206 187 202 230 247 241 208 202 223 229 224 225 221 232 256 26 317 268 201 185 206 209 157 113 126 141 140 146 161 179 187 178 164 159 151 152 158 145 149 175 126 93 98 113 122 128 138 149 154 155 154 153 153 151 150 151 152 153 157 159 163 167 165 165 167 165 164 169 168 164 164 160 157 160 158 157 156 152 149 144 139 136
228 237 188 192 204 205 207 215 223 238 236 194 215 232 227 227 241 242 208 141 183 262 236 194 213 179 140 141 158 165 159 152 157 163 160 143 126 121 122 133 147 140 133 131 108 103 109 116 121 128 138 151 163 168 159 152 151 149 147 150 151 150 152 157 162 165 163 162 168 174 173 173 170 164 163 161 159 159 156 156 156 153 150 146 143 141
231 250 179 177 197 209 216 232 230 233 246 228 215 232 231 224 256 262 242 194 200 231 236 207 213 207 188 180 174 182 181 151 139 129 112 95 92 101 110 120 131 133 126 116 112 115 123 129 134 136 137 142 153 168 149 137 138 141 141 143 147 148 149 154 157 158 162 166 174 180 178 173 170 166 164 163 159 157 157 157 156 154 154 151 149 147
227 249 208 190 207 202 197 235 242 228 238 251 262 254 239 227 229 232 238 236 221 228 232 213 214 223 227 196 173 179 174 143 130 116 108 105 101 102 106 113 121 126 124 118 113 115 124 136 141 135 125 122 126 117 98 103 112 117 126 137 141 144 147 147 149 155 166 174 177 182 181 176 173 169 164 163 162 159 160 159 157 157 156 155 157 155
217 257 236 205 215 199 183 213 231 218 218 236 263 258 237 241 243 230 230 236 232 231 227 222 216 208 310 325 164 168 156 132 125 120 122 118 108 105 103 110 119 123 121 119 118 119 122 127 129 123 116 115 117 105 97 97 96 94 113 131 134 140 145 144 147 156 168 174 177 180 180 177 176 172 165 165 165 163 163 163 160 159 160 161 164 163
202 226 239 226 224 210 197 210 220 223 213 211 225 234 228 227 226 230 241 246 246 240 225 231 220 151 23 3 102 135 134 123 124 127 126 120 112 106 99 102 111 113 113 117 123 129 129 124 122 118 118 123 120 109 110 117 123 127 134 138 137 142 147 147 151 161 171 175 174 174 175 174 176 174 170 168 168 167 166 166 163 161 164 167 169 169
213 216 229 235 229 222 225 224 220 229 241 225 214 221 228 228 222 229 237 235 242 253 246 241 222 104 26 354 76 122 134 130 133 130 119 114 111 107 103 101 102 103 105 112 121 129 135 135 130 123 122 126 126 127 129 133 142 145 138 139 144 148 149 150 153 158 165 171 173 175 174 173 175 178 176 173 172 171 167 167 169 168 170 174 175 175
309 244 239 235 233 234 244 272 251 247 267 264 241 229 226 227 229 234 240 237 236 248 253 249 235 116 41 338 45 116 130 129 129 126 122 116 108 108 107 102 101 105 106 108 112 118 124 127 126 123 123 130 137 145 147 148 154 145 130 132 141 148 151 150 152 154 157 165 171 174 175 175 177 180 180 178 177 175 170 171 175 176 178 180 177 177
134 231 250 246 242 241 227 242 273 262 259 260 253 244 238 233 231 234 241 248 244 244 242 244 237 158 110 338 45 112 126 138 138 130 124 117 108 108 109 105 104 104 105 107 108 114 121 121 121 124 129 137 144 151 155 156 150 139 133 132 133 139 145 145 150 154 155 161 167 172 176 177 179 181 181 182 182 180 177 176 177 180 183 182 179 182
191 222 248 245 240 240 223 211 221 227 235 243 239 240 246 244 243 249 248 237 244 251 247 246 237 126 102 149 142 132 142 146 136 123 117 115 113 110 106 105 103 103 104 108 109 112 117 119 121 125 131 137 140 145 149 144 134 129 130 130 128 133 138 143 153 158 157 161 164 171 178 180 183 184 182 186 188 185 183 181 180 183 186 185 183 184
168 97 267 257 249 245 241 243 257 246 237 237 235 240 249 244 244 253 252 236 241 244 247 250 180 119 123 138 131 139 151 141 125 121 118 113 110 106 105 106 106 108 108 106 109 112 114 118 122 125 128 129 128 128 127 123 117 114 117 122 128 136 141 142 147 149 151 156 158 169 182 183 185 188 188 190 192 191 188 186 186 188 191 193 191 187
136 120 121 262 272 278 302 329 337 321 273 240 230 231 239 242 245 251 246 246 250 246 251 234 144 133 135 133 130 139 144 133 126 131 127 118 113 110 113 116 112 113 112 108 110 114 116 117 119 124 128 125 122 121 117 114 111 108 112 117 120 129 136 137 140 142 146 153 159 169 183 184 184 188 189 189 193 194 194 194 195 196 197 200 199 197
170 182 154 156 200 250 305 326 338 336 306 263 240 232 234 229 230 236 242 259 281 271 269 134 124 130 135 133 128 124 127 126 130 136 129 124 122 119 120 121 117 114 108 102 108 114 111 105 101 110 116 115 116 116 110 108 109 109 110 109 104 105 111 122 136 142 146 155 163 170 180 181 181 186 185 186 190 194 198 201 202 203 206 209 210 209
226 207 173 179 203 222 265 293 312 324 329 344 21 16 303 223 211 216 227 273 285 248 157 115 113 115 125 125 102 82 92 110 119 130 132 130 129 128 125 120 112 106 100 93 95 103 100 96 97 102 107 111 113 113 110 108 109 109 107 104 104 103 104 115 128 132 134 143 150 155 161 163 170 182 185 187 194 198 203 206 208 214 220 224 230 227
247 196 171 198 218 220 222 230 251 280 305 326 8 24 30 58 86 99 88 73 83 103 117 121 114 106 107 107 87 71 82 98 102 117 129 131 128 124 119 112 103 95 94 92 93 95 93 92 91 90 98 106 108 110 112 110 112 113 109 107 107 106 109 116 117 115 118 117 115 118 124 133 151 171 180 187 199 207 211 214 222 231 230 232 237 234
228 169 159 200 229 218 209 210 212 226 258 277 305 352 11 44 60 59 60 66 93 110 113 112 107 101 97 105 115 122 117 106 99 106 116 123 124 121 114 110 109 105 98 91 90 91 91 91 91 89 89 88 87 94 103 104 108 112 112 114 113 110 113 116 113 110 112 110 110 112 112 114 124 144 162 180 198 206 210 214 222 229 229 230 231 229
203 175 166 211 232 214 197 206 209 198 209 238 255 286 324 16 42 51 52 42 67 122 132 122 112 116 122 123 123 114 96 84 75 77 87 91 102 115 112 104 106 112 108 95 85 81 80 78 76 78 81 82 83 87 90 93 97 100 102 104 101 102 110 114 113 112 110 109 110 107 106 111 116 122 142 175 201 207 211 213 214 220 229 231 225 224
199 183 185 216 234 232 204 197 202 201 206 226 235 237 227 97 79 66 58 39 29 71 143 134 116 122 128 127 117 91 76 70 61 55 58 56 53 64 74 72 70 83 93 84 71 66 68 68 64 61 60 63 67 72 77 82 83 83 86 88 88 99 106 101 97 97 97 96 94 94 98 107 113 124 140 178 213 212 214 216 212 213 221 225 224 225
232 228 211 213 246 255 214 187 204 224 222 234 331 95 133 134 126 90 67 54 41 50 84 98 111 126 130 127 117 98 78 66 58 51 51 55 53 47 47 48 52 60 64 56 48 45 46 48 49 51 53 51 50 50 55 62 69 72 76 78 77 80 85 85 83 79 77 77 77 79 80 82 82 87 107 168 217 220 223 224 221 218 214 218 224 220
194 233 226 187 223 279 155 174 219 237 221 40 21 38 85 121 122 103 85 80 80 91 99 99 110 122 121 116 111 100 87 73 62 54 50 52 58 58 51 46 47 48 45 39 35 36 35 31 28 27 29 31 34 39 39 37 43 57 64 69 70 63 64 73 76 70 65 64 67 66 61 59 56 45 33 4 269 250 243 233 229 229 222 221 226 216
195 208 214 192 181 173 168 197 223 251 89 81 84 134 122 130 133 118 95 87 103 120 118 108 106 109 111 113 110 106 103 92 76 66 61 56 59 66 63 55 51 49 49 47 43 40 36 31 27 24 19 15 15 19 21 18 21 39 51 54 62 66 64 66 68 65 57 51 49 43 31 22 16 5 339 314 295 273 262 248 238 237 232 231 233 228
243 216 224 221 203 199 214 211 183 134 164 154 130 119 102 110 124 108 105 108 118 133 124 119 119 117 119 122 122 124 123 111 97 101 109 110 109 105 101 96 86 71 60 65 77 69 54 40 35 32 26 19 13 8 6 4 3 15 34 37 39 51 62 62 56 52 43 31 27 19 4 352 344 333 315 301 288 277 271 260 249 242 237 234 232 225
284 264 253 246 223 214 234 234 207 202 220 161 107 78 41 35 3 356 92 113 122 150 136 130 132 130 130 132 135 141 137 114 102 115 127 128 127 125 129 131 121 104 80 66 70 76 70 58 44 35 31 28 19 9 4 359 355 358 10 20 21 27 43 47 37 29 23 13 5 359 353 346 337 329 320 307 296 291 283 272 265 255 242 238 235 226
271 255 246 250 239 230 250 256 239 218 254 81 89 68 37 26 357 329 177 144 142 158 147 141 142 142 141 144 150 160 166 131 117 122 127 125 117 111 114 111 103 99 91 71 48 41 48 52 51 47 43 30 12 2 354 350 350 349 355 4 4 4 17 24 11 1 360 357 350 344 343 339 332 327 320 310 304 301 291 279 270 258 244 241 237 226
254 255 248 253 253 245 249 262 264 92 69 49 53 39 18 9 335 258 210 167 144 151 148 144 147 146 147 155 156 143 70 101 124 123 120 118 107 92 85 79 71 69 70 60 43 26 22 24 24 25 28 18 360 349 342 340 343 341 345 350 346 344 351 353 344 339 339 339 334 327 324 323 322 322 316 308 305 300 291 280 270 257 242 239 236 224
234 255 256 257 260 251 244 258 265 94 75 31 24 5 346 336 261 223 167 124 125 131 130 129 133 137 144 149 133 85 68 84 107 111 108 106 99 87 76 65 53 47 44 41 35 23 12 9 10 7 3 359 352 347 346 345 342 338 338 337 335 337 339 334 328 327 325 322 315 309 307 306 307 309 306 301 297 292 286 277 268 258 244 238 238 233
261 272 257 251 258 260 262 266 233 102 47 13 40 15 338 318 208 132 99 118 128 125 123 119 115 119 113 92 82 88 91 91 95 98 95 88 83 76 67 55 45 40 35 31 33 26 8 357 1 3 356 352 351 350 348 345 340 336 333 331 331 331 328 323 319 314 311 307 300 296 296 294 292 292 289 287 285 282 280 275 268 259 248 242 242 242
2 300 260 270 307 269 259 260 238 103 27 343 58 59 3 9 110 105 107 123 122 114 118 119 113 117 113 97 93 99 99 93 89 88 85 79 72 67 62 53 43 38 30 19 24 21 3 351 357 358 352 350 351 349 346 342 337 335 334 331 330 329 324 319 313 306 303 301 296 292 289 285 283 280 276 273 272 271 270 268 265 260 252 246 243 242
19 317 282 30 14 300 279 307 5 74 63 30 63 82 74 92 125 141 132 125 125 123 117 107 101 104 108 108 106 100 94 89 82 75 74 74 68 62 58 52 44 38 28 17 20 16 358 350 355 351 346 350 350 346 344 340 336 334 332 328 328 329 325 318 313 308 304 299 293 288 285 281 278 273 269 266 263 262 262 259 258 257 252 247 244 241
36 16 9 53 46 18 44 78 93 84 74 66 74 92 97 102 122 133 119 108 108 109 108 107 101 93 90 97 98 88 80 75 70 66 64 66 65 57 47 45 43 35 25 21 22 12 355 348 350 346 345 349 347 342 341 337 332 329 327 325 326 326 322 318 315 310 305 300 294 290 286 283 279 274 270 268 263 259 257 255 253 252 250 247 244 241
65 50 24 81 103 90 75 84 102 97 84 76 76 82 85 84 80 76 79 76 64 61 75 89 87 74 64 67 76 76 71 67 67 67 59 54 55 48 37 38 39 30 22 22 22 10 355 347 350 349 346 343 340 339 338 332 325 321 318 318 319 318 316 314 311 307 303 300 297 294 291 286 283 278 273 269 265 262 259 255 251 249 248 247 245 243
71 10 353 136 149 141 105 103 111 111 106 100 92 86 84 84 74 62 64 71 66 60 65 67 66 65 58 55 64 73 73 66 60 58 56 52 47 43 39 36 30 24 21 21 20 10 357 355 359 357 352 348 345 343 340 334 327 323 321 319 318 315 312 309 306 304 303 301 299 298 294 288 286 285 281 274 269 264 260 257 253 250 247 245 244 242
42 322 280 108 119 126 121 121 121 119 118 118 115 107 100 94 88 80 78 83 80 77 77 72 64 65 65 62 65 72 73 67 53 41 41 48 43 36 31 25 19 19 23 23 20 14 10 13 14 8 2 358 353 348 344 340 334 328 323 318 315 311 308 305 304 302 301 299 298 296 292 287 285 284 281 277 273 269 264 260 256 254 251 249 248 245
318 273 282 76 105 114 125 136 137 131 130 129 117 111 115 111 106 105 106 104 97 90 87 80 70 68 74 73 70 72 74 68 51 31 19 29 37 29 22 16 10 14 21 22 23 25 24 21 15 7 360 356 352 348 344 338 332 326 321 316 314 312 307 304 301 299 297 296 294 293 292 291 287 282 276 273 272 270 267 263 259 259 259 258 257 254
288 299 346 191 172 142 140 150 147 134 142 141 124 116 118 116 115 119 121 113 98 81 73 83 88 87 83 74 63 57 61 59 46 27 14 21 29 22 12 5 1 10 22 23 23 26 22 14 7 0 355 353 351 346 341 337 332 329 325 320 316 312 307 303 300 297 296 295 294 293 294 292 291 291 289 284 277 272 269 267 263 260 260 262 268 268
348 360 8 344 26 77 118 144 145 28 128 133 128 126 122 118 124 120 90 73 75 65 44 56 104 107 95 87 78 58 43 35 24 14 11 12 10 5 3 2 360 6 17 19 16 14 10 5 2 357 352 350 347 341 338 337 334 332 330 324 318 312 307 304 301 298 297 296 295 296 296 293 291 293 293 291 287 281 277 275 269 263 258 257 262 264